Columbus AFB, MS

11:16 PM CDT on July 22, 2017 (GMT -0500)
Columbus Air Force Base

Weather History for KCBM - June, 2013

Change the Weather History Date:

Sunday, June 23, 2013

  Actual Average Record
Temperature  
Mean Temperature 78 °F -  
Max Temperature 90 °F 86 °F 98 °F (1998)
Min Temperature 67 °F 68 °F 62 °F (2003)
Cooling Degree Days 14    
Growing Degree Days 28 (Base 50)    
Moisture  
Dew Point 68 °F    
Average Humidity 68    
Maximum Humidity 93    
Minimum Humidity 46    
Precipitation  
Precipitation 0.00 in - - ()
Sea Level Pressure  
Sea Level Pressure 30.09 in    
Wind  
Wind Speed 1 mph (SE)    
Max Wind Speed 8 mph    
Max Gust Speed -    
Visibility 10 miles    
Events      
Averages and records for this station are not official NWS values.
T = Trace of Precipitation, MM = Missing Value Source: NWS Daily Summary

Daily Weather History Graph

Daily Weather History Graph

Search for Another Location

Airport or City:

Trip Planner

Search our weather history database for the weather conditions in past years. The results will help you decide how hot, cold, wet, or windy it might be!

Date:

Astronomy

Jun. 23, 2013 Rise Set
Actual Time 5:44 AM CDT 8:07 PM CDT
Civil Twilight 5:15 AM CDT 8:36 PM CDT
Nautical Twilight 4:39 AM CDT 9:12 PM CDT
Astronomical Twilight 4:00 AM CDT 9:51 PM CDT
Moon 8:24 PM CDT 5:58 AM CDT
Length of Visible Light 15h 21m
Length of Day
14h 23m
Full, 100% of the Moon is Illuminated
Jun 23
Full
Jun 29
Last Quarter
Jul 8
New
Jul 15
First Quarter
Jul 22
Full

Hourly Weather History & Observations

Time (CDT) Temp. Heat Index Dew Point Humidity Pressure Visibility Wind Dir Wind Speed Gust Speed Precip Events Conditions
12:58 AM 71.6 °F - 64.9 °F 79% 30.09 in 10.0 mi Calm Calm - N/A   Clear
1:58 AM 71.1 °F - 65.1 °F 81% 30.06 in 10.0 mi Calm Calm - N/A   Clear
2:58 AM 70.3 °F - 64.4 °F 81% 30.06 in 10.0 mi Calm Calm - N/A   Clear
3:58 AM 70.0 °F - 64.9 °F 84% 30.06 in 10.0 mi Calm Calm - N/A   Clear
4:58 AM 69.1 °F - 65.1 °F 87% 30.07 in 10.0 mi Calm Calm - N/A   Clear
5:58 AM 67.8 °F - 65.7 °F 93% 30.09 in 10.0 mi Calm Calm - N/A   Clear
6:58 AM 70.3 °F - 66.4 °F 87% 30.11 in 8.0 mi Calm Calm - N/A   Clear
7:58 AM 75.6 °F - 67.8 °F 77% 30.12 in 10.0 mi SSE 4.6 mph - N/A   Clear
8:58 AM 79.2 °F - 69.4 °F 72% 30.14 in 10.0 mi Variable 2.3 mph - N/A   Clear
9:58 AM 82.6 °F 86.8 °F 70.7 °F 67% 30.14 in 10.0 mi Calm Calm - N/A   Clear
10:58 AM 85.1 °F 89.4 °F 69.8 °F 60% 30.14 in 10.0 mi Calm Calm - N/A   Clear
11:48 AM 86.0 °F 90.4 °F 69.8 °F 58% 30.12 in 10.0 mi Calm Calm - N/A   Mostly Cloudy
11:53 AM 86.0 °F 89.4 °F 68.0 °F 55% 30.12 in 10.0 mi ENE 2.3 mph - N/A   Scattered Clouds
11:58 AM 86.9 °F 90.6 °F 68.2 °F 54% 30.12 in 10.0 mi Calm Calm - N/A   Partly Cloudy
12:08 PM 86.0 °F 89.4 °F 68.0 °F 55% 30.11 in 10.0 mi Variable 1.2 mph - N/A   Mostly Cloudy
12:13 PM 87.8 °F 91.4 °F 68.0 °F 52% 30.11 in 10.0 mi North 1.2 mph - N/A   Scattered Clouds
12:58 PM 88.2 °F 92.5 °F 69.1 °F 53% 30.11 in 10.0 mi South 5.8 mph - N/A   Scattered Clouds
1:58 PM 87.1 °F 90.2 °F 67.3 °F 52% 30.09 in 10.0 mi ESE 3.5 mph - N/A   Partly Cloudy
2:58 PM 88.7 °F 92.2 °F 67.6 °F 50% 30.06 in 10.0 mi Variable 3.5 mph - N/A   Scattered Clouds
3:58 PM 90.0 °F 92.8 °F 66.6 °F 46% 30.06 in 10.0 mi South 5.8 mph - N/A   Clear
4:58 PM 89.8 °F 94.6 °F 69.4 °F 51% 30.06 in 10.0 mi South 8.1 mph - N/A   Clear
5:58 PM 88.2 °F 92.1 °F 68.7 °F 52% 30.06 in 10.0 mi SSE 5.8 mph - N/A   Clear
6:58 PM 86.2 °F 90.4 °F 69.4 °F 57% 30.06 in 10.0 mi SSE 8.1 mph - N/A   Clear
7:58 PM 82.4 °F 87.4 °F 72.1 °F 71% 30.06 in 10.0 mi SSE 6.9 mph - N/A   Partly Cloudy
8:58 PM 78.4 °F - 72.3 °F 81% 30.07 in 10.0 mi SSE 3.5 mph - N/A   Clear
9:58 PM 76.6 °F - 71.8 °F 85% 30.09 in 10.0 mi North 1.2 mph - N/A   Clear
10:58 PM 76.5 °F - 72.1 °F 86% 30.12 in 10.0 mi Calm Calm - N/A   Clear
11:58 PM 74.3 °F - 71.1 °F 90% 30.12 in 10.0 mi Calm Calm - N/A   Clear